| time (UTC) | temp C | wind direction | speed KPH | gust KPH | rain 1hr cm | rain 24hr cm | rain mn cm | humidity % | barometer mb |
| 20260504044904 | 4 | 162 | 0.0 | 0.0 | 0.00 | 0.00 | 0.00 | 77 | 1018.0 |
| 20260504041903 | 4 | 144 | 0.0 | 0.0 | 0.00 | 0.00 | 0.00 | 75 | 1018.4 |
| 20260504034901 | 5 | 144 | 0.0 | 0.0 | 0.00 | 0.00 | 0.00 | 77 | 1018.4 |
| 20260504031901 | 5 | 186 | 0.0 | 0.0 | 0.00 | 0.00 | 0.00 | 76 | 1018.0 |
| 20260504024900 | 6 | 174 | 0.0 | 0.0 | 0.00 | 0.00 | 0.00 | 74 | 1018.0 |
| 20260504021856 | 6 | 108 | 0.0 | 0.0 | 0.00 | 0.00 | 0.00 | 69 | 1017.7 |
| 20260504014853 | 7 | 180 | 0.0 | 0.0 | 0.00 | 0.00 | 0.00 | 66 | 1017.7 |
| 20260504011854 | 8 | 111 | 0.0 | 0.0 | 0.00 | 0.00 | 0.00 | 64 | 1017.4 |
| 20260504004850 | 10 | 162 | 0.0 | 0.0 | 0.00 | 0.00 | 0.00 | 52 | 1017.4 |
| 20260504001849 | 11 | 265 | 3.2 | 3.2 | 0.00 | 0.00 | 0.00 | 44 | 1017.4 |
| 20260503234849 | 13 | 264 | 1.6 | 1.6 | 0.00 | 0.00 | 0.00 | 43 | 1017.0 |
| 20260503231844 | 14 | 271 | 3.2 | 3.2 | 0.00 | 0.00 | 0.00 | 39 | 1016.7 |
| 20260503224842 | 14 | 331 | 3.2 | 3.2 | 0.00 | 0.00 | 0.00 | 37 | 1016.7 |
| 20260503221837 | 15 | 32 | 3.2 | 3.2 | 0.00 | 0.00 | 0.00 | 37 | 1016.7 |
| 20260503214832 | 15 | 242 | 8.0 | 8.0 | 0.00 | 0.00 | 0.00 | 36 | 1017.0 |
| 20260503211828 | 16 | 306 | 9.7 | 9.7 | 0.00 | 0.00 | 0.00 | 34 | 1017.0 |
| 20260503204828 | 15 | 324 | 3.2 | 3.2 | 0.00 | 0.00 | 0.00 | 35 | 1017.0 |
| 20260503201825 | 15 | 309 | 3.2 | 3.2 | 0.00 | 0.00 | 0.00 | 37 | 1017.4 |
| 20260503194824 | 15 | 287 | 3.2 | 3.2 | 0.00 | 0.00 | 0.00 | 39 | 1017.7 |
| 20260503191823 | 14 | 39 | 11.3 | 12.9 | 0.00 | 0.00 | 0.00 | 39 | 1018.0 |
| 20260503184819 | 14 | 335 | 8.0 | 9.7 | 0.00 | 0.00 | 0.00 | 40 | 1017.7 |
| 20260503181814 | 14 | 341 | 4.8 | 4.8 | 0.00 | 0.00 | 0.00 | 38 | 1018.4 |
| 20260503174811 | 13 | 340 | 6.4 | 8.0 | 0.00 | 0.00 | 0.00 | 40 | 1018.4 |
| 20260503171809 | 13 | 327 | 6.4 | 6.4 | 0.00 | 0.00 | 0.00 | 38 | 1018.7 |
| 20260503071717 | 3 | 348 | 4.8 | 4.8 | 0.00 | 0.00 | 0.00 | 74 | 1017.7 |